Year,Month,Day,Hour,Minute,Value (Times are PST for temperature in C)
2021,06,29,00,00,26.60
2021,06,29,00,01,26.70
2021,06,29,00,02,26.70
2021,06,29,00,03,26.70
2021,06,29,00,04,26.70
2021,06,29,00,05,26.70
2021,06,29,00,06,26.70
2021,06,29,00,07,26.60
2021,06,29,00,08,26.60
2021,06,29,00,09,26.50
2021,06,29,00,10,26.40
2021,06,29,00,11,26.40
2021,06,29,00,12,26.30
2021,06,29,00,13,26.30
2021,06,29,00,14,26.20
2021,06,29,00,15,26.20
2021,06,29,00,16,26.20
2021,06,29,00,17,26.10
2021,06,29,00,18,26.10
2021,06,29,00,19,26.00
2021,06,29,00,20,26.00
2021,06,29,00,21,26.00
2021,06,29,00,22,25.90
2021,06,29,00,23,25.90
2021,06,29,00,24,25.80
2021,06,29,00,25,25.80
2021,06,29,00,26,25.80
2021,06,29,00,27,25.80
2021,06,29,00,28,25.70
2021,06,29,00,29,25.70
2021,06,29,00,30,25.70
2021,06,29,00,31,25.70
2021,06,29,00,32,25.60
2021,06,29,00,33,25.60
2021,06,29,00,34,25.60
2021,06,29,00,35,25.60
2021,06,29,00,36,25.60
2021,06,29,00,37,25.60
2021,06,29,00,38,25.70
2021,06,29,00,39,25.70
2021,06,29,00,40,25.70
2021,06,29,00,41,25.70
2021,06,29,00,42,25.70
2021,06,29,00,43,25.70
2021,06,29,00,44,25.70
2021,06,29,00,45,25.70
2021,06,29,00,46,25.70
2021,06,29,00,47,25.60
2021,06,29,00,48,25.60
2021,06,29,00,49,25.50
2021,06,29,00,50,25.40
2021,06,29,00,51,25.40
2021,06,29,00,52,25.40
2021,06,29,00,53,25.40
2021,06,29,00,54,25.30
2021,06,29,00,55,25.30
2021,06,29,00,56,25.30
2021,06,29,00,57,25.30
2021,06,29,00,58,25.30
2021,06,29,00,59,25.30
2021,06,29,01,00,25.30
2021,06,29,01,01,25.20
2021,06,29,01,02,25.20
2021,06,29,01,03,25.20
2021,06,29,01,04,25.20
2021,06,29,01,05,25.20
2021,06,29,01,06,25.20
2021,06,29,01,07,25.20
2021,06,29,01,08,25.20
2021,06,29,01,09,25.20
2021,06,29,01,10,25.30
2021,06,29,01,11,25.30
2021,06,29,01,12,25.30
2021,06,29,01,13,25.30
2021,06,29,01,14,25.30
2021,06,29,01,15,25.30
2021,06,29,01,16,25.30
2021,06,29,01,17,25.30
2021,06,29,01,18,25.20
2021,06,29,01,19,25.20
2021,06,29,01,20,25.20
2021,06,29,01,21,25.20
2021,06,29,01,22,25.10
2021,06,29,01,23,25.00
2021,06,29,01,24,25.00
2021,06,29,01,25,24.90
2021,06,29,01,26,24.90
2021,06,29,01,27,24.80
2021,06,29,01,28,24.80
2021,06,29,01,29,24.80
2021,06,29,01,30,24.70
2021,06,29,01,31,24.70
2021,06,29,01,32,24.70
2021,06,29,01,33,24.70
2021,06,29,01,34,24.60
2021,06,29,01,35,24.60
2021,06,29,01,36,24.70
2021,06,29,01,37,24.70
2021,06,29,01,38,24.70
2021,06,29,01,39,24.80
2021,06,29,01,40,24.80
2021,06,29,01,41,24.80
2021,06,29,01,42,24.80
2021,06,29,01,43,24.80
2021,06,29,01,44,24.80
2021,06,29,01,45,24.80
2021,06,29,01,46,24.90
2021,06,29,01,47,25.00
2021,06,29,01,48,25.10
2021,06,29,01,49,25.20
2021,06,29,01,50,25.30
2021,06,29,01,51,25.30
2021,06,29,01,52,25.30
2021,06,29,01,53,25.30
2021,06,29,01,54,25.30
2021,06,29,01,55,25.30
2021,06,29,01,56,25.30
2021,06,29,01,57,25.30
2021,06,29,01,58,25.30
2021,06,29,01,59,25.40
2021,06,29,02,00,25.50
2021,06,29,02,01,25.50
2021,06,29,02,02,25.60
2021,06,29,02,03,25.60
2021,06,29,02,04,25.60
2021,06,29,02,05,25.60
2021,06,29,02,06,25.60
2021,06,29,02,07,25.60
2021,06,29,02,08,25.60
2021,06,29,02,09,25.70
2021,06,29,02,10,25.80
2021,06,29,02,11,25.80
2021,06,29,02,12,25.90
2021,06,29,02,13,25.90
2021,06,29,02,14,25.90
2021,06,29,02,15,25.90
2021,06,29,02,16,26.00
2021,06,29,02,17,26.00
2021,06,29,02,18,26.00
2021,06,29,02,19,26.10
2021,06,29,02,20,26.10
2021,06,29,02,21,26.00
2021,06,29,02,22,25.90
2021,06,29,02,23,25.80
2021,06,29,02,24,25.80
2021,06,29,02,25,25.70
2021,06,29,02,26,25.60
2021,06,29,02,27,25.60
2021,06,29,02,28,25.60
2021,06,29,02,29,25.50
2021,06,29,02,30,25.50
2021,06,29,02,31,25.40
2021,06,29,02,32,25.40
2021,06,29,02,33,25.40
2021,06,29,02,34,25.30
2021,06,29,02,35,25.30
2021,06,29,02,36,25.20
2021,06,29,02,37,25.10
2021,06,29,02,38,25.10
2021,06,29,02,39,25.10
2021,06,29,02,40,25.10
2021,06,29,02,41,25.10
2021,06,29,02,42,25.10
2021,06,29,02,43,25.10
2021,06,29,02,44,25.20
2021,06,29,02,45,25.20
2021,06,29,02,46,25.20
2021,06,29,02,47,25.20
2021,06,29,02,48,25.10
2021,06,29,02,49,25.10
2021,06,29,02,50,25.00
2021,06,29,02,51,25.00
2021,06,29,02,52,24.90
2021,06,29,02,53,24.80
2021,06,29,02,54,24.70
2021,06,29,02,55,24.70
2021,06,29,02,56,24.70
2021,06,29,02,57,24.70
2021,06,29,02,58,24.70
2021,06,29,02,59,24.70
2021,06,29,03,00,24.80
2021,06,29,03,01,24.90
2021,06,29,03,02,24.90
2021,06,29,03,03,24.90
2021,06,29,03,04,25.00
2021,06,29,03,05,25.10
2021,06,29,03,06,25.10
2021,06,29,03,07,25.10
2021,06,29,03,08,25.10
2021,06,29,03,09,25.10
2021,06,29,03,10,25.00
2021,06,29,03,11,24.90
2021,06,29,03,12,24.80
2021,06,29,03,13,24.60
2021,06,29,03,14,24.60
2021,06,29,03,15,24.50
2021,06,29,03,16,24.40
2021,06,29,03,17,24.40
2021,06,29,03,18,24.60
2021,06,29,03,19,24.80
2021,06,29,03,20,25.00
2021,06,29,03,21,25.10
2021,06,29,03,22,25.20
2021,06,29,03,23,25.20
2021,06,29,03,24,25.20
2021,06,29,03,25,25.10
2021,06,29,03,26,25.00
2021,06,29,03,27,24.90
2021,06,29,03,28,24.90
2021,06,29,03,29,24.80
2021,06,29,03,30,24.80
2021,06,29,03,31,24.70
2021,06,29,03,32,24.70
2021,06,29,03,33,24.60
2021,06,29,03,34,24.60
2021,06,29,03,35,24.60
2021,06,29,03,36,24.50
2021,06,29,03,37,24.50
2021,06,29,03,38,24.50
2021,06,29,03,39,24.60
2021,06,29,03,40,24.60
2021,06,29,03,41,24.70
2021,06,29,03,42,24.80
2021,06,29,03,43,24.90
2021,06,29,03,44,25.00
2021,06,29,03,45,25.10
2021,06,29,03,46,25.20
2021,06,29,03,47,25.30
2021,06,29,03,48,25.30
2021,06,29,03,49,25.20
2021,06,29,03,50,25.00
2021,06,29,03,51,24.80
2021,06,29,03,52,24.60
2021,06,29,03,53,24.40
2021,06,29,03,54,24.30
2021,06,29,03,55,24.30
2021,06,29,03,56,24.20
2021,06,29,03,57,24.10
2021,06,29,03,58,24.10
2021,06,29,03,59,24.10
2021,06,29,04,00,24.10
2021,06,29,04,01,24.10
2021,06,29,04,02,24.20
2021,06,29,04,03,24.20
2021,06,29,04,04,24.30
2021,06,29,04,05,24.30
2021,06,29,04,06,24.30
2021,06,29,04,07,24.20
2021,06,29,04,08,24.20
2021,06,29,04,09,24.20
2021,06,29,04,10,24.20
2021,06,29,04,11,24.30
2021,06,29,04,12,24.40
2021,06,29,04,13,24.50
2021,06,29,04,14,24.50
2021,06,29,04,15,24.40
2021,06,29,04,16,24.40
2021,06,29,04,17,24.40
2021,06,29,04,18,24.30
2021,06,29,04,19,24.30
2021,06,29,04,20,24.30
2021,06,29,04,21,24.30
2021,06,29,04,22,24.20
2021,06,29,04,23,24.20
2021,06,29,04,24,24.20
2021,06,29,04,25,24.20
2021,06,29,04,26,24.20
2021,06,29,04,27,24.20
2021,06,29,04,28,24.20
2021,06,29,04,29,24.20
2021,06,29,04,30,24.20
2021,06,29,04,31,24.30
2021,06,29,04,32,24.30
2021,06,29,04,33,24.30
2021,06,29,04,34,24.30
2021,06,29,04,35,24.30
2021,06,29,04,36,24.30
2021,06,29,04,37,24.30
2021,06,29,04,38,24.30
2021,06,29,04,39,24.30
2021,06,29,04,40,24.20
2021,06,29,04,41,24.20
2021,06,29,04,42,24.10
2021,06,29,04,43,24.10
2021,06,29,04,44,24.00
2021,06,29,04,45,24.00
2021,06,29,04,46,24.00
2021,06,29,04,47,24.00
2021,06,29,04,48,23.90
2021,06,29,04,49,23.90
2021,06,29,04,50,23.80
2021,06,29,04,51,23.80
2021,06,29,04,52,23.70
2021,06,29,04,53,23.60
2021,06,29,04,54,23.50
2021,06,29,04,55,23.40
2021,06,29,04,56,23.40
2021,06,29,04,57,23.30
2021,06,29,04,58,23.40
2021,06,29,04,59,23.50
2021,06,29,05,00,23.60
2021,06,29,05,01,23.70
2021,06,29,05,02,23.80
2021,06,29,05,03,23.80
2021,06,29,05,04,23.70
2021,06,29,05,05,23.70
2021,06,29,05,06,23.70
2021,06,29,05,07,23.70
2021,06,29,05,08,23.70
2021,06,29,05,09,23.70
2021,06,29,05,10,23.80
2021,06,29,05,11,23.80
2021,06,29,05,12,23.90
2021,06,29,05,13,23.90
2021,06,29,05,14,23.90
2021,06,29,05,15,23.90
2021,06,29,05,16,23.80
2021,06,29,05,17,23.80
2021,06,29,05,18,23.80
2021,06,29,05,19,23.70
2021,06,29,05,20,23.70
2021,06,29,05,21,23.60
2021,06,29,05,22,23.50
2021,06,29,05,23,23.50
2021,06,29,05,24,23.50
2021,06,29,05,25,23.40
2021,06,29,05,26,23.40
2021,06,29,05,27,23.40
2021,06,29,05,28,23.40
2021,06,29,05,29,23.40
2021,06,29,05,30,23.30
2021,06,29,05,31,23.30
2021,06,29,05,32,23.30
2021,06,29,05,33,23.30
2021,06,29,05,34,23.30
2021,06,29,05,35,23.20
2021,06,29,05,36,23.20
2021,06,29,05,37,23.10
2021,06,29,05,38,23.10
2021,06,29,05,39,23.00
2021,06,29,05,40,23.00
2021,06,29,05,41,23.00
2021,06,29,05,42,22.90
2021,06,29,05,43,22.90
2021,06,29,05,44,22.90
2021,06,29,05,45,22.90
2021,06,29,05,46,22.90
2021,06,29,05,47,22.90
2021,06,29,05,48,23.00
2021,06,29,05,49,23.00
2021,06,29,05,50,23.10
2021,06,29,05,51,23.10
2021,06,29,05,52,23.20
2021,06,29,05,53,23.20
2021,06,29,05,54,23.30
2021,06,29,05,55,23.30
2021,06,29,05,56,23.30
2021,06,29,05,57,23.30
2021,06,29,05,58,23.30
2021,06,29,05,59,23.30
2021,06,29,06,00,23.30
2021,06,29,06,01,23.30
2021,06,29,06,02,23.30
2021,06,29,06,03,23.30
2021,06,29,06,04,23.40
2021,06,29,06,05,23.40
2021,06,29,06,06,23.50
2021,06,29,06,07,23.60
2021,06,29,06,08,23.60
2021,06,29,06,09,23.70
2021,06,29,06,10,23.70
2021,06,29,06,11,23.80
2021,06,29,06,12,23.80
2021,06,29,06,13,23.80
2021,06,29,06,14,23.80
2021,06,29,06,15,23.80
2021,06,29,06,16,23.80
2021,06,29,06,17,23.80
2021,06,29,06,18,23.80
2021,06,29,06,19,23.70
2021,06,29,06,20,23.70
2021,06,29,06,21,23.70
2021,06,29,06,22,23.70
2021,06,29,06,23,23.70
2021,06,29,06,24,23.80
2021,06,29,06,25,23.70
2021,06,29,06,26,23.70
2021,06,29,06,27,23.70
2021,06,29,06,28,23.70
2021,06,29,06,29,23.70
2021,06,29,06,30,23.70
2021,06,29,06,31,23.80
2021,06,29,06,32,23.80
2021,06,29,06,33,23.80
2021,06,29,06,34,23.80
2021,06,29,06,35,23.70
2021,06,29,06,36,23.70
2021,06,29,06,37,23.70
2021,06,29,06,38,23.70
2021,06,29,06,39,23.70
2021,06,29,06,40,23.80
2021,06,29,06,41,23.90
2021,06,29,06,42,24.00
2021,06,29,06,43,24.10
2021,06,29,06,44,24.20
2021,06,29,06,45,24.30
2021,06,29,06,46,24.30
2021,06,29,06,47,24.40
2021,06,29,06,48,24.40
2021,06,29,06,49,24.50
2021,06,29,06,50,24.60
2021,06,29,06,51,24.60
2021,06,29,06,52,24.60
2021,06,29,06,53,24.70
2021,06,29,06,54,24.70
2021,06,29,06,55,24.80
2021,06,29,06,56,24.80
2021,06,29,06,57,24.90
2021,06,29,06,58,24.90
2021,06,29,06,59,25.00
2021,06,29,07,00,25.00
2021,06,29,07,01,25.10
2021,06,29,07,02,25.20
2021,06,29,07,03,25.20
2021,06,29,07,04,25.30
2021,06,29,07,05,25.30
2021,06,29,07,06,25.40
2021,06,29,07,07,25.50
2021,06,29,07,08,25.50
2021,06,29,07,09,25.60
2021,06,29,07,10,25.60
2021,06,29,07,11,25.60
2021,06,29,07,12,25.70
2021,06,29,07,13,25.70
2021,06,29,07,14,25.70
2021,06,29,07,15,25.70
2021,06,29,07,16,25.80
2021,06,29,07,17,25.80
2021,06,29,07,18,25.80
2021,06,29,07,19,25.90
2021,06,29,07,20,25.90
2021,06,29,07,21,25.90
2021,06,29,07,22,26.00
2021,06,29,07,23,26.00
2021,06,29,07,24,26.10
2021,06,29,07,25,26.10
2021,06,29,07,26,26.20
2021,06,29,07,27,26.20
2021,06,29,07,28,26.30
2021,06,29,07,29,26.30
2021,06,29,07,30,26.40
2021,06,29,07,31,26.50
2021,06,29,07,32,26.60
2021,06,29,07,33,26.60
2021,06,29,07,34,26.70
2021,06,29,07,35,26.80
2021,06,29,07,36,26.90
2021,06,29,07,37,27.00
2021,06,29,07,38,27.20
2021,06,29,07,39,27.30
2021,06,29,07,40,27.40
2021,06,29,07,41,27.50
2021,06,29,07,42,27.60
2021,06,29,07,43,27.70
2021,06,29,07,44,27.90
2021,06,29,07,45,27.90
2021,06,29,07,46,28.00
2021,06,29,07,47,28.00
2021,06,29,07,48,28.10
2021,06,29,07,49,28.10
2021,06,29,07,50,28.20
2021,06,29,07,51,28.30
2021,06,29,07,52,28.30
2021,06,29,07,53,28.40
2021,06,29,07,54,28.50
2021,06,29,07,55,28.60
2021,06,29,07,56,28.60
2021,06,29,07,57,28.60
2021,06,29,07,58,28.60
2021,06,29,07,59,28.70
2021,06,29,08,00,28.70
2021,06,29,08,01,28.70
2021,06,29,08,02,28.80
2021,06,29,08,03,28.80
2021,06,29,08,04,28.80
2021,06,29,08,05,28.90
2021,06,29,08,06,28.90
2021,06,29,08,07,29.00
2021,06,29,08,08,29.10
2021,06,29,08,09,29.20
2021,06,29,08,10,29.30
2021,06,29,08,11,29.30
2021,06,29,08,12,29.40
2021,06,29,08,13,29.60
2021,06,29,08,14,29.60
2021,06,29,08,15,29.70
2021,06,29,08,16,29.80
2021,06,29,08,17,29.90
2021,06,29,08,18,30.00
2021,06,29,08,19,30.10
2021,06,29,08,20,30.10
2021,06,29,08,21,30.20
2021,06,29,08,22,30.20
2021,06,29,08,23,30.30
2021,06,29,08,24,30.30
2021,06,29,08,25,30.30
2021,06,29,08,26,30.40
2021,06,29,08,27,30.40
2021,06,29,08,28,30.50
2021,06,29,08,29,30.50
2021,06,29,08,30,30.60
2021,06,29,08,31,30.60
2021,06,29,08,32,30.70
2021,06,29,08,33,30.80
2021,06,29,08,34,30.80
2021,06,29,08,35,30.90
2021,06,29,08,36,30.90
2021,06,29,08,37,31.00
2021,06,29,08,38,31.10
2021,06,29,08,39,31.10
2021,06,29,08,40,31.20
2021,06,29,08,41,31.20
2021,06,29,08,42,31.30
2021,06,29,08,43,31.30
2021,06,29,08,44,31.30
2021,06,29,08,45,31.40
2021,06,29,08,46,31.40
2021,06,29,08,47,31.50
2021,06,29,08,48,31.50
2021,06,29,08,49,31.50
2021,06,29,08,50,31.60
2021,06,29,08,51,31.60
2021,06,29,08,52,31.50
2021,06,29,08,53,31.40
2021,06,29,08,54,31.40
2021,06,29,08,55,31.40
2021,06,29,08,56,31.40
2021,06,29,08,57,31.40
2021,06,29,08,58,31.40
2021,06,29,08,59,31.40
2021,06,29,09,00,31.40
2021,06,29,09,01,31.30
2021,06,29,09,02,31.20
2021,06,29,09,03,31.20
2021,06,29,09,04,31.20
2021,06,29,09,05,31.20
2021,06,29,09,06,31.20
2021,06,29,09,07,31.30
2021,06,29,09,08,31.30
2021,06,29,09,09,31.40
2021,06,29,09,10,31.40
2021,06,29,09,11,31.50
2021,06,29,09,12,31.50
2021,06,29,09,13,31.50
2021,06,29,09,14,31.50
2021,06,29,09,15,31.60
2021,06,29,09,16,31.60
2021,06,29,09,17,31.60
2021,06,29,09,18,31.60
2021,06,29,09,19,31.60
2021,06,29,09,20,31.70
2021,06,29,09,21,31.70
2021,06,29,09,22,31.70
2021,06,29,09,23,31.80
2021,06,29,09,24,31.80
2021,06,29,09,25,31.80
2021,06,29,09,26,31.80
2021,06,29,09,27,31.80
2021,06,29,09,28,31.80
2021,06,29,09,29,31.80
2021,06,29,09,30,31.80
2021,06,29,09,31,31.80
2021,06,29,09,32,31.80
2021,06,29,09,33,31.80
2021,06,29,09,34,31.80
2021,06,29,09,35,31.80
2021,06,29,09,36,31.80
2021,06,29,09,37,31.90
2021,06,29,09,38,31.90
2021,06,29,09,39,31.90
2021,06,29,09,40,31.90
2021,06,29,09,41,31.90
2021,06,29,09,42,31.80
2021,06,29,09,43,31.80
2021,06,29,09,44,31.80
2021,06,29,09,45,31.80
2021,06,29,09,46,31.80
2021,06,29,09,47,31.90
2021,06,29,09,48,31.90
2021,06,29,09,49,31.90
2021,06,29,09,50,31.90
2021,06,29,09,51,32.00
2021,06,29,09,52,32.00
2021,06,29,09,53,32.10
2021,06,29,09,54,32.10
2021,06,29,09,55,32.10
2021,06,29,09,56,32.10
2021,06,29,09,57,32.20
2021,06,29,09,58,32.20
2021,06,29,09,59,32.30
2021,06,29,10,00,32.40
2021,06,29,10,01,32.50
2021,06,29,10,02,32.50
2021,06,29,10,03,32.60
2021,06,29,10,04,32.60
2021,06,29,10,05,32.60
2021,06,29,10,06,32.60
2021,06,29,10,07,32.60
2021,06,29,10,08,32.50
2021,06,29,10,09,32.50
2021,06,29,10,10,32.40
2021,06,29,10,11,32.40
2021,06,29,10,12,32.40
2021,06,29,10,13,32.30
2021,06,29,10,14,32.40
2021,06,29,10,15,32.30
2021,06,29,10,16,32.40
2021,06,29,10,17,32.40
2021,06,29,10,18,32.40
2021,06,29,10,19,32.40
2021,06,29,10,20,32.40
2021,06,29,10,21,32.40
2021,06,29,10,22,32.30
2021,06,29,10,23,32.30
2021,06,29,10,24,32.30
2021,06,29,10,25,32.40
2021,06,29,10,26,32.40
2021,06,29,10,27,32.50
2021,06,29,10,28,32.60
2021,06,29,10,29,32.60
2021,06,29,10,30,32.50
2021,06,29,10,31,32.50
2021,06,29,10,32,32.40
2021,06,29,10,33,32.30
2021,06,29,10,34,32.30
2021,06,29,10,35,32.30
2021,06,29,10,36,32.30
2021,06,29,10,37,32.30
2021,06,29,10,38,32.30
2021,06,29,10,39,32.30
2021,06,29,10,40,32.40
2021,06,29,10,41,32.50
2021,06,29,10,42,32.50
2021,06,29,10,43,32.60
2021,06,29,10,44,32.50
2021,06,29,10,45,32.50
2021,06,29,10,46,32.60
2021,06,29,10,47,32.60
2021,06,29,10,48,32.60
2021,06,29,10,49,32.70
2021,06,29,10,50,32.70
2021,06,29,10,51,32.80
2021,06,29,10,52,32.90
2021,06,29,10,53,33.00
2021,06,29,10,54,33.10
2021,06,29,10,55,33.10
2021,06,29,10,56,33.20
2021,06,29,10,57,33.20
2021,06,29,10,58,33.30
2021,06,29,10,59,33.30
2021,06,29,11,00,33.30
2021,06,29,11,01,33.30
2021,06,29,11,02,33.20
2021,06,29,11,03,33.20
2021,06,29,11,04,33.20
2021,06,29,11,05,33.30
2021,06,29,11,06,33.30
2021,06,29,11,07,33.30
2021,06,29,11,08,33.40
2021,06,29,11,09,33.40
2021,06,29,11,10,33.40
2021,06,29,11,11,33.30
2021,06,29,11,12,33.30
2021,06,29,11,13,33.30
2021,06,29,11,14,33.30
2021,06,29,11,15,33.30
2021,06,29,11,16,33.30
2021,06,29,11,17,33.30
2021,06,29,11,18,33.30
2021,06,29,11,19,33.20
2021,06,29,11,20,33.20
2021,06,29,11,21,33.20
2021,06,29,11,22,33.20
2021,06,29,11,23,33.30
2021,06,29,11,24,33.30
2021,06,29,11,25,33.30
2021,06,29,11,26,33.30
2021,06,29,11,27,33.30
2021,06,29,11,28,33.30
2021,06,29,11,29,33.30
2021,06,29,11,30,33.40
2021,06,29,11,31,33.40
2021,06,29,11,32,33.50
2021,06,29,11,33,33.50
2021,06,29,11,34,33.60
2021,06,29,11,35,33.60
2021,06,29,11,36,33.60
2021,06,29,11,37,33.80
2021,06,29,11,38,33.80
2021,06,29,11,39,33.70
2021,06,29,11,40,33.70
2021,06,29,11,41,33.80
2021,06,29,11,42,33.80
2021,06,29,11,43,33.90
2021,06,29,11,44,33.90
2021,06,29,11,45,34.00
2021,06,29,11,46,33.90
2021,06,29,11,47,33.90
2021,06,29,11,48,33.90
2021,06,29,11,49,33.90
2021,06,29,11,50,33.80
2021,06,29,11,51,33.80
2021,06,29,11,52,33.80
2021,06,29,11,53,33.90
2021,06,29,11,54,33.90
2021,06,29,11,55,34.00
2021,06,29,11,56,34.10
2021,06,29,11,57,34.10
2021,06,29,11,58,34.20
2021,06,29,11,59,34.20
2021,06,29,12,00,34.20
2021,06,29,12,01,34.20
2021,06,29,12,02,34.20
2021,06,29,12,03,34.20
2021,06,29,12,04,34.20
2021,06,29,12,05,34.20
2021,06,29,12,06,34.30
2021,06,29,12,07,34.30
2021,06,29,12,08,34.30
2021,06,29,12,09,34.40
2021,06,29,12,10,34.30
2021,06,29,12,11,34.30
2021,06,29,12,12,34.30
2021,06,29,12,13,34.30
2021,06,29,12,14,34.30
2021,06,29,12,15,34.40
2021,06,29,12,16,34.40
2021,06,29,12,17,34.50
2021,06,29,12,18,34.50
2021,06,29,12,19,34.50
2021,06,29,12,20,34.50
2021,06,29,12,21,34.60
2021,06,29,12,22,34.60
2021,06,29,12,23,34.70
2021,06,29,12,24,34.70
2021,06,29,12,25,34.70
2021,06,29,12,26,34.70
2021,06,29,12,27,34.70
2021,06,29,12,28,34.80
2021,06,29,12,29,34.70
2021,06,29,12,30,34.70
2021,06,29,12,31,34.70
2021,06,29,12,32,34.70
2021,06,29,12,33,34.80
2021,06,29,12,34,34.80
2021,06,29,12,35,34.80
2021,06,29,12,36,34.70
2021,06,29,12,37,34.70
2021,06,29,12,38,34.70
2021,06,29,12,39,34.70
2021,06,29,12,40,34.70
2021,06,29,12,41,34.70
2021,06,29,12,42,34.80
2021,06,29,12,43,34.90
2021,06,29,12,44,34.90
2021,06,29,12,45,34.90
2021,06,29,12,46,35.00
2021,06,29,12,47,35.00
2021,06,29,12,48,35.00
2021,06,29,12,49,35.00
2021,06,29,12,50,34.90
2021,06,29,12,51,34.90
2021,06,29,12,52,34.90
2021,06,29,12,53,34.90
2021,06,29,12,54,35.00
2021,06,29,12,55,35.10
2021,06,29,12,56,35.20
2021,06,29,12,57,35.20
2021,06,29,12,58,35.30
2021,06,29,12,59,35.40
2021,06,29,13,00,35.50
2021,06,29,13,01,35.60
2021,06,29,13,02,35.60
2021,06,29,13,03,35.70
2021,06,29,13,04,35.70
2021,06,29,13,05,35.80
2021,06,29,13,06,35.80
2021,06,29,13,07,35.80
2021,06,29,13,08,35.80
2021,06,29,13,09,35.80
2021,06,29,13,10,35.70
2021,06,29,13,11,35.70
2021,06,29,13,12,35.70
2021,06,29,13,13,35.70
2021,06,29,13,14,35.80
2021,06,29,13,15,35.80
2021,06,29,13,16,35.80
2021,06,29,13,17,35.70
2021,06,29,13,18,35.70
2021,06,29,13,19,35.70
2021,06,29,13,20,35.70
2021,06,29,13,21,35.70
2021,06,29,13,22,35.70
2021,06,29,13,23,35.60
2021,06,29,13,24,35.60
2021,06,29,13,25,35.40
2021,06,29,13,26,35.40
2021,06,29,13,27,35.30
2021,06,29,13,28,35.30
2021,06,29,13,29,35.30
2021,06,29,13,30,35.40
2021,06,29,13,31,35.40
2021,06,29,13,32,35.40
2021,06,29,13,33,35.40
2021,06,29,13,34,35.40
2021,06,29,13,35,35.30
2021,06,29,13,36,35.30
2021,06,29,13,37,35.30
2021,06,29,13,38,35.40
2021,06,29,13,39,35.40
2021,06,29,13,40,35.50
2021,06,29,13,41,35.60
2021,06,29,13,42,35.70
2021,06,29,13,43,35.70
2021,06,29,13,44,35.60
2021,06,29,13,45,35.70
2021,06,29,13,46,35.70
2021,06,29,13,47,35.70
2021,06,29,13,48,35.80
2021,06,29,13,49,35.80
2021,06,29,13,50,35.80
2021,06,29,13,51,35.80
2021,06,29,13,52,35.80
2021,06,29,13,53,35.90
2021,06,29,13,54,36.00
2021,06,29,13,55,36.00
2021,06,29,13,56,36.10
2021,06,29,13,57,36.00
2021,06,29,13,58,35.90
2021,06,29,13,59,35.90
2021,06,29,14,00,35.80
2021,06,29,14,01,35.70
2021,06,29,14,02,35.60
2021,06,29,14,03,35.60
2021,06,29,14,04,35.60
2021,06,29,14,05,35.50
2021,06,29,14,06,35.50
2021,06,29,14,07,35.60
2021,06,29,14,08,35.60
2021,06,29,14,09,35.50
2021,06,29,14,10,35.40
2021,06,29,14,11,35.30
2021,06,29,14,12,35.20
2021,06,29,14,13,35.10
2021,06,29,14,14,35.00
2021,06,29,14,15,34.90
2021,06,29,14,16,34.90
2021,06,29,14,17,34.80
2021,06,29,14,18,34.80
2021,06,29,14,19,34.80
2021,06,29,14,20,34.70
2021,06,29,14,21,34.70
2021,06,29,14,22,34.70
2021,06,29,14,23,34.70
2021,06,29,14,24,34.70
2021,06,29,14,25,34.70
2021,06,29,14,26,34.70
2021,06,29,14,27,34.80
2021,06,29,14,28,34.90
2021,06,29,14,29,35.00
2021,06,29,14,30,35.00
2021,06,29,14,31,35.00
2021,06,29,14,32,35.00
2021,06,29,14,33,34.90
2021,06,29,14,34,34.90
2021,06,29,14,35,34.90
2021,06,29,14,36,34.90
2021,06,29,14,37,34.90
2021,06,29,14,38,34.90
2021,06,29,14,39,34.90
2021,06,29,14,40,34.90
2021,06,29,14,41,34.90
2021,06,29,14,42,34.90
2021,06,29,14,43,34.80
2021,06,29,14,44,34.80
2021,06,29,14,45,34.80
2021,06,29,14,46,34.80
2021,06,29,14,47,34.80
2021,06,29,14,48,34.90
2021,06,29,14,49,34.90
2021,06,29,14,50,34.90
2021,06,29,14,51,35.00
2021,06,29,14,52,35.00
2021,06,29,14,53,35.10
2021,06,29,14,54,35.10
2021,06,29,14,55,35.10
2021,06,29,14,56,35.10
2021,06,29,14,57,35.10
2021,06,29,14,58,35.10
2021,06,29,14,59,35.20
2021,06,29,15,00,35.20
2021,06,29,15,01,35.20
2021,06,29,15,02,35.30
2021,06,29,15,03,35.40
2021,06,29,15,04,35.50
2021,06,29,15,05,35.60
2021,06,29,15,06,35.60
2021,06,29,15,07,35.70
2021,06,29,15,08,35.60
2021,06,29,15,09,35.60
2021,06,29,15,10,35.60
2021,06,29,15,11,35.50
2021,06,29,15,12,35.40
2021,06,29,15,13,35.40
2021,06,29,15,14,35.30
2021,06,29,15,15,35.30
2021,06,29,15,16,35.30
2021,06,29,15,17,35.40
2021,06,29,15,18,35.40
2021,06,29,15,19,35.30
2021,06,29,15,20,35.30
2021,06,29,15,21,35.20
2021,06,29,15,22,35.20
2021,06,29,15,23,35.20
2021,06,29,15,24,35.20
2021,06,29,15,25,35.30
2021,06,29,15,26,35.30
2021,06,29,15,27,35.30
2021,06,29,15,28,35.40
2021,06,29,15,29,35.40
2021,06,29,15,30,35.50
2021,06,29,15,31,35.60
2021,06,29,15,32,35.60
2021,06,29,15,33,35.60
2021,06,29,15,34,35.60
2021,06,29,15,35,35.60
2021,06,29,15,36,35.60
2021,06,29,15,37,35.70
2021,06,29,15,38,35.70
2021,06,29,15,39,35.70
2021,06,29,15,40,35.80
2021,06,29,15,41,35.80
2021,06,29,15,42,35.80
2021,06,29,15,43,35.80
2021,06,29,15,44,35.80
2021,06,29,15,45,35.70
2021,06,29,15,46,35.70
2021,06,29,15,47,35.70
2021,06,29,15,48,35.70
2021,06,29,15,49,35.80
2021,06,29,15,50,35.80
2021,06,29,15,51,35.80
2021,06,29,15,52,35.80
2021,06,29,15,53,35.80
2021,06,29,15,54,35.90
2021,06,29,15,55,35.90
2021,06,29,15,56,35.90
2021,06,29,15,57,36.00
2021,06,29,15,58,36.10
2021,06,29,15,59,36.10
2021,06,29,16,00,36.10
2021,06,29,16,01,36.10
2021,06,29,16,02,36.10
2021,06,29,16,03,36.10
2021,06,29,16,04,36.10
2021,06,29,16,05,36.10
2021,06,29,16,06,36.10
2021,06,29,16,07,36.00
2021,06,29,16,08,36.00
2021,06,29,16,09,36.00
2021,06,29,16,10,36.00
2021,06,29,16,11,36.00
2021,06,29,16,12,36.00
2021,06,29,16,13,36.00
2021,06,29,16,14,36.10
2021,06,29,16,15,36.10
2021,06,29,16,16,36.10
2021,06,29,16,17,36.20
2021,06,29,16,18,36.20
2021,06,29,16,19,36.10
2021,06,29,16,20,36.10
2021,06,29,16,21,36.10
2021,06,29,16,22,36.10
2021,06,29,16,23,36.10
2021,06,29,16,24,36.10
2021,06,29,16,25,36.10
2021,06,29,16,26,36.10
2021,06,29,16,27,36.20
2021,06,29,16,28,36.20
2021,06,29,16,29,36.20
2021,06,29,16,30,36.20
2021,06,29,16,31,36.20
2021,06,29,16,32,36.20
2021,06,29,16,33,36.30
2021,06,29,16,34,36.30
2021,06,29,16,35,36.30
2021,06,29,16,36,36.30
2021,06,29,16,37,36.30
2021,06,29,16,38,36.30
2021,06,29,16,39,36.30
2021,06,29,16,40,36.30
2021,06,29,16,41,36.30
2021,06,29,16,42,36.30
2021,06,29,16,43,36.30
2021,06,29,16,44,36.30
2021,06,29,16,45,36.30
2021,06,29,16,46,36.30
2021,06,29,16,47,36.30
2021,06,29,16,48,36.30
2021,06,29,16,49,36.30
2021,06,29,16,50,36.30
2021,06,29,16,51,36.40
2021,06,29,16,52,36.40
2021,06,29,16,53,36.40
2021,06,29,16,54,36.40
2021,06,29,16,55,36.30
2021,06,29,16,56,36.30
2021,06,29,16,57,36.30
2021,06,29,16,58,36.40
2021,06,29,16,59,36.40
2021,06,29,17,00,36.40
2021,06,29,17,01,36.40
2021,06,29,17,02,36.50
2021,06,29,17,03,36.60
2021,06,29,17,04,36.60
2021,06,29,17,05,36.60
2021,06,29,17,06,36.60
2021,06,29,17,07,36.70
2021,06,29,17,08,36.70
2021,06,29,17,09,36.60
2021,06,29,17,10,36.50
2021,06,29,17,11,36.40
2021,06,29,17,12,36.40
2021,06,29,17,13,36.30
2021,06,29,17,14,36.30
2021,06,29,17,15,36.30
2021,06,29,17,16,36.30
2021,06,29,17,17,36.30
2021,06,29,17,18,36.30
2021,06,29,17,19,36.30